Wallops Island, VA

4:20 PM EST on December 06, 2019 (GMT -0500)
Wallops Flight Facility

Weather History for KWAL - October, 2019

Change the Weather History Date:

Monday, October 14, 2019

  Actual Average Record
Temperature  
Mean Temperature 69 °F 60 °F  
Max Temperature 75 °F 69 °F 85 °F (1990)
Min Temperature 63 °F 51 °F 34 °F (1988)
Degree Days  
Heating Degree Days 0    
Month to date heating degree days  
Since 1 July heating degree days  
Cooling Degree Days 4    
Month to date cooling degree days  
Year to date cooling degree days  
Growing Degree Days 15 (Base 50)    
Moisture  
Dew Point 61 °F    
Average Humidity 72    
Maximum Humidity 100    
Minimum Humidity 44    
Precipitation  
Precipitation 0.75 in 0.10 in 0.96 in (2010)
Month to date precipitation 1.08 1.44  
Year to date precipitation 35.41 32.81  
Snow  
Snow 0.00 in 0.00 in 0.00 in ()
Month to date snowfall 0.0 0.0  
Since 1 July snowfall 0.0 0.0  
Snow Depth 0.00 in    
Sea Level Pressure  
Sea Level Pressure 29.99 in    
Wind  
Wind Speed 5 mph (West)    
Max Wind Speed 13 mph    
Max Gust Speed 18 mph    
Visibility 7 miles    
Events Rain    
T = Trace of Precipitation, MM = Missing Value Source: NWS Daily Summary

Daily Weather History Graph

Daily Weather History Graph

Search for Another Location

Airport or City:

Astronomy

Oct. 14, 2019 Rise Set
Actual Time 7:09 AM EDT 6:26 PM EDT
Civil Twilight 6:42 AM EDT 6:52 PM EDT
Nautical Twilight 6:12 AM EDT 7:22 PM EDT
Astronomical Twilight 5:41 AM EDT 7:53 PM EDT
Moon 7:15 PM EDT (10/14) 7:39 AM EDT (10/14)
Length of Visible Light 12h 09m
Length of Day
11h 16m
Waxing Gibbous, 99% of the Moon is Illuminated
Oct 14
Waxing Gibbous
Oct 21
Last Quarter
Oct 27
New
Nov 4
First Quarter
Nov 12
Full

Hourly Weather History & Observations

Time (EDT) Temp. Dew Point Humidity Pressure Visibility Wind Dir Wind Speed Gust Speed Precip Events Conditions
12:37 AM 66.0 °F 66.0 °F 100% 29.99 in 9.0 mi SSW 5.8 mph - 0.02 in   Overcast
12:54 AM 66.0 °F 64.9 °F 96% 29.99 in 10.0 mi South 9.2 mph - 0.02 in Rain Light Rain
1:49 AM 64.4 °F 64.4 °F 100% 29.98 in 7.0 mi South 8.1 mph - 0.05 in Rain Light Rain
1:54 AM 64.9 °F 64.0 °F 97% 29.97 in 9.0 mi SSW 6.9 mph - 0.06 in Rain Light Rain
2:54 AM 64.9 °F 64.9 °F 100% 29.96 in 3.0 mi South 3.5 mph - 0.04 in Rain Heavy Rain
2:57 AM 64.9 °F 64.9 °F 100% 29.96 in 2.0 mi Calm Calm - 0.02 in Rain Heavy Rain
3:00 AM 64.9 °F 64.9 °F 100% 29.96 in 1.8 mi Calm Calm - 0.06 in Rain Heavy Rain
3:06 AM 64.9 °F 64.0 °F 97% 29.96 in 0.8 mi Calm Calm - 0.16 in Rain Heavy Rain
3:16 AM 64.9 °F 64.0 °F 97% 29.96 in 1.5 mi SW 5.8 mph - 0.45 in Rain Heavy Rain
3:19 AM 64.9 °F 64.0 °F 97% 29.96 in 3.0 mi SW 4.6 mph - 0.46 in Rain Rain
3:54 AM 64.9 °F 64.9 °F 100% 29.95 in 9.0 mi WSW 3.5 mph - 0.47 in Rain Light Rain
4:11 AM 64.9 °F 64.9 °F 100% 29.95 in 10.0 mi SW 3.5 mph - 0.00 in   Overcast
4:27 AM 64.9 °F 64.9 °F 100% 29.95 in 10.0 mi West 3.5 mph - 0.00 in   Overcast
4:54 AM 64.9 °F 64.9 °F 100% 29.95 in 10.0 mi WSW 3.5 mph - 0.00 in   Overcast
5:04 AM 64.9 °F 64.9 °F 100% 29.96 in 6.0 mi SW 3.5 mph - 0.00 in Rain Light Rain
5:18 AM 64.9 °F 64.9 °F 100% 29.96 in 5.0 mi West 4.6 mph - 0.02 in Rain Light Rain
5:28 AM 64.9 °F 64.9 °F 100% 29.96 in 3.0 mi Calm Calm - 0.04 in Rain Heavy Rain
5:30 AM 64.9 °F 64.9 °F 100% 29.96 in 2.5 mi Calm Calm - 0.05 in Rain Heavy Rain
5:40 AM 64.9 °F 64.9 °F 100% 29.97 in 2.0 mi West 3.5 mph - 0.10 in Rain Heavy Rain
5:47 AM 64.9 °F 64.9 °F 100% 29.97 in 2.5 mi NW 4.6 mph - 0.14 in Rain Light Rain
5:54 AM 64.9 °F 64.9 °F 100% 29.96 in 3.0 mi NW 6.9 mph - 0.18 in Rain Heavy Rain
6:52 AM 62.6 °F 62.6 °F 100% 29.98 in 8.0 mi NW 6.9 mph - 0.00 in   Overcast
6:54 AM 63.0 °F 63.0 °F 100% 29.98 in 8.0 mi NW 4.6 mph - 0.00 in   Overcast
7:01 AM 63.0 °F 63.0 °F 100% 29.99 in 8.0 mi NW 5.8 mph - N/A   Overcast
7:27 AM 63.0 °F 63.0 °F 100% 30.00 in 7.0 mi NNW 5.8 mph - N/A   Overcast
7:37 AM 63.0 °F 62.1 °F 97% 30.00 in 6.0 mi NNW 6.9 mph - N/A   Overcast
7:54 AM 63.0 °F 62.1 °F 97% 29.99 in 6.0 mi NNW 4.6 mph - N/A   Overcast
8:14 AM 64.0 °F 63.0 °F 96% 30.01 in 7.0 mi North 6.9 mph - N/A   Overcast
8:37 AM 63.0 °F 62.1 °F 97% 30.03 in 7.0 mi NW 4.6 mph - N/A   Overcast
8:54 AM 63.0 °F 62.1 °F 97% 30.02 in 8.0 mi NNW 8.1 mph - N/A   Overcast
9:54 AM 63.0 °F 61.0 °F 93% 30.04 in 10.0 mi NW 9.2 mph - N/A   Overcast
10:54 AM 63.0 °F 59.0 °F 87% 30.05 in 10.0 mi NNW 8.1 mph - N/A   Overcast
11:44 AM 66.9 °F 59.0 °F 76% 30.04 in 10.0 mi West 5.8 mph - N/A   Scattered Clouds
11:54 AM 66.9 °F 59.0 °F 76% 30.03 in 10.0 mi WNW 9.2 mph - N/A   Clear
12:54 PM 71.1 °F 55.9 °F 59% 30.01 in 10.0 mi NW 6.9 mph - N/A   Clear
1:54 PM 73.9 °F 53.1 °F 48% 30.00 in 10.0 mi NW 10.4 mph - N/A   Clear
2:54 PM 73.9 °F 50.0 °F 43% 29.98 in 10.0 mi Variable 5.8 mph - N/A   Clear
3:54 PM 75.0 °F 53.1 °F 46% 29.97 in 10.0 mi Variable 4.6 mph - N/A   Clear
4:54 PM 73.0 °F 53.1 °F 49% 29.97 in 10.0 mi WSW 6.9 mph - N/A   Clear
5:54 PM 68.0 °F 55.9 °F 65% 29.99 in 10.0 mi WSW 6.9 mph - N/A   Clear
6:54 PM 64.0 °F 55.9 °F 75% 30.00 in 10.0 mi West 4.6 mph - N/A   Clear
7:54 PM 61.0 °F 55.9 °F 83% 30.02 in 10.0 mi West 4.6 mph - N/A   Clear
8:54 PM 57.9 °F 55.9 °F 93% 30.04 in 10.0 mi WNW 3.5 mph - N/A   Clear
9:54 PM 57.0 °F 55.0 °F 93% 30.05 in 10.0 mi Calm Calm - N/A   Clear
10:54 PM 55.9 °F 55.0 °F 97% 30.06 in 10.0 mi Calm Calm - N/A   Clear
11:54 PM 55.9 °F 54.0 °F 93% 30.06 in 10.0 mi Calm Calm - N/A   Clear